Wind_Speed
3 3 2 3 4 5 7 8 9 9 9 8 8 8 8 8 8 8 8 8 8 7 7 7 6 6 6 6 6 6 6 6 6 6 7 7 7 7 7 8 8 8 8
3 2 2 3 3 4 6 7 8 8 8 8 7 7 8 8 8 8 8 8 8 7 7 6 6 6 6 6 6 6 6 6 6 6 6 6 6 6 7 7 7 8 8
2 2 2 2 3 4 5 6 7 8 8 7 7 7 7 7 8 8 8 7 7 7 7 6 6 6 5 5 5 5 5 5 5 5 6 6 6 5 6 6 7 7 8
2 2 2 2 3 3 4 5 6 7 7 7 7 7 7 7 7 7 7 7 7 7 6 6 6 5 5 5 5 5 5 4 4 5 5 5 5 5 5 6 6 7 7
1 1 1 2 3 3 4 4 5 6 6 7 7 6 6 7 7 7 7 7 7 7 6 6 6 5 5 5 4 4 4 4 4 4 4 4 4 4 5 5 6 7 7
0 1 1 2 3 3 4 4 5 5 6 6 6 6 6 6 6 6 7 6 6 6 6 6 5 5 4 4 4 4 4 4 3 3 3 3 3 4 5 5 5 6 6
1 2 1 2 3 3 4 4 4 5 5 5 5 5 5 6 6 6 6 6 6 6 5 5 5 4 4 4 3 3 3 3 3 3 3 3 3 4 4 4 5 5 5
1 2 2 3 3 3 4 4 4 4 4 4 5 5 5 5 5 5 5 5 5 5 5 4 4 4 4 4 3 2 3 3 3 3 3 3 2 3 3 3 3 4 4
1 2 3 3 4 4 4 4 4 4 4 4 3 3 4 4 4 5 4 4 4 4 4 4 4 4 4 3 3 2 2 2 2 2 2 2 2 2 2 2 3 3 3
2 3 3 5 5 6 5 4 4 4 4 3 3 2 2 3 3 4 4 3 3 3 3 4 4 4 4 4 3 3 2 2 2 2 2 1 1 2 2 2 3 3 3
3 3 3 4 6 7 7 6 5 5 4 4 3 2 1 1 2 3 3 3 3 3 3 3 4 4 4 3 3 2 2 2 2 1 1 1 1 2 2 3 3 3 3
4 4 4 5 6 7 8 7 6 6 6 5 4 3 1 1 1 2 3 2 2 2 2 2 3 3 3 3 3 2 2 2 2 1 1 1 1 1 2 3 3 3 3
6 5 5 6 6 7 8 8 7 7 7 6 6 4 3 3 2 2 2 2 1 1 1 2 2 3 3 3 2 2 2 1 1 1 1 0 1 2 2 3 3 3 3
7 6 6 7 8 8 8 8 8 8 8 8 7 6 5 4 4 3 3 2 1 0 0 1 2 2 3 3 2 1 1 1 1 1 1 0 1 1 2 3 3 3 3
7 7 6 7 8 9 9 8 9 9 9 9 8 8 7 6 5 5 4 3 2 2 1 0 1 1 2 2 1 1 1 1 1 1 1 0 1 1 2 3 3 3 3
8 8 7 7 8 9 10 10 10 10 10 10 10 9 8 8 7 6 5 4 3 3 2 2 1 1 1 2 1 0 0 0 1 1 1 0 1 1 1 2 3 3 3
8 9 8 8 8 9 10 10 11 11 11 11 11 11 10 9 8 7 6 5 4 4 3 3 3 1 1 1 1 0 0 0 0 0 0 1 1 1 1 1 2 3 3
10 9 9 10 9 10 11 11 12 11 12 12 12 12 12 11 10 9 8 7 6 5 5 5 4 3 1 1 0 0 1 1 1 1 1 1 1 1 1 1 2 3 3
10 9 10 10 11 12 12 12 13 12 13 13 13 14 13 12 12 11 10 9 8 7 6 6 5 4 2 2 1 1 1 1 1 1 1 1 2 2 2 2 2 3 3
9 10 11 11 12 13 13 13 14 14 13 14 15 16 14 14 13 13 12 11 10 9 8 7 6 5 4 4 3 3 3 2 2 1 1 1 2 2 2 3 3 3 3
9 10 11 12 14 14 14 14 15 15 14 15 16 17 15 14 14 13 13 12 11 10 10 9 8 7 6 5 5 4 3 3 2 2 2 2 2 3 3 4 4 4 4
10 11 12 14 15 16 16 16 16 17 16 15 16 16 16 16 15 14 14 13 12 11 11 10 9 9 8 7 6 6 5 5 4 3 3 3 3 3 3 3 4 4 5
11 12 12 14 15 16 17 17 17 17 17 17 17 18 17 16 16 15 15 14 13 13 12 12 12 11 9 9 8 7 7 6 6 5 4 4 4 4 3 3 4 5 6
12 13 14 14 15 15 16 18 18 18 17 17 19 19 19 17 17 16 16 15 15 15 15 14 13 12 11 10 9 8 8 8 7 7 7 6 6 6 5 5 5 5 6
13 13 14 15 14 14 14 15 16 18 18 18 19 19 19 19 19 18 17 16 16 17 16 15 15 14 13 12 10 10 10 10 10 9 9 9 8 8 8 8 8 8 8
13 13 13 13 13 14 14 14 14 16 16 18 19 19 20 20 20 19 18 17 17 17 18 17 16 15 14 14 13 12 12 12 12 12 11 11 11 11 10 10 11 11 11
Wind_Direction
91 94 115 123 117 110 106 99 92 87 81 76 69 63 60 57 54 50 49 51 54 56 58 61 62 65 69 71 70 71 74 79 81 81 83 87 92 95 96 96 98 99 97
94 101 118 129 125 115 110 101 92 88 82 76 70 64 58 56 55 50 47 47 51 52 54 57 58 62 66 68 68 71 76 80 81 81 85 87 92 95 97 99 101 101 99
94 110 135 138 137 126 115 104 94 87 82 76 71 66 59 56 54 52 48 47 49 51 53 53 56 62 65 67 69 74 76 77 82 83 86 87 91 96 100 104 105 104 104
98 103 132 140 148 137 124 108 98 90 85 80 73 68 61 56 54 51 50 48 49 49 51 53 57 62 63 65 66 72 77 75 80 82 81 84 88 94 99 107 108 107 107
97 118 135 140 141 135 127 113 106 96 90 85 77 70 62 56 52 48 47 48 49 49 50 52 57 60 61 62 63 65 71 79 82 80 81 85 88 92 99 106 110 110 111
102 168 173 153 152 138 129 123 113 102 97 90 80 72 64 55 49 45 44 47 49 48 48 49 54 59 59 60 64 62 65 76 73 74 80 89 91 96 103 104 109 111 115
199 197 173 165 164 153 141 134 122 113 105 95 85 78 69 57 48 43 43 45 46 46 45 43 45 54 53 50 62 72 72 69 70 73 82 91 96 99 105 109 111 114 118
218 203 200 181 180 169 159 153 139 130 119 107 94 85 72 56 45 41 39 40 44 45 44 40 43 49 49 51 58 77 78 67 71 70 72 84 98 107 113 118 118 120 122
258 223 216 205 198 187 175 168 159 149 139 127 111 95 76 56 43 39 35 34 38 42 44 44 40 42 48 50 56 69 73 64 60 58 64 88 109 120 126 128 134 135 134
263 239 239 221 209 202 193 179 176 169 157 150 142 118 79 51 37 33 27 24 29 35 39 43 40 40 47 55 58 66 69 66 58 54 68 116 152 154 155 153 148 149 148
277 259 246 228 210 206 202 195 189 184 176 174 172 157 115 38 19 19 16 16 17 24 33 37 37 34 41 47 52 70 83 53 64 58 74 138 161 172 175 171 165 162 159
288 278 248 229 214 209 207 204 202 196 192 193 190 187 196 269 325 352 0 358 7 25 34 35 32 28 27 37 51 70 77 62 58 53 79 142 169 181 187 188 183 180 179
277 269 260 240 223 215 211 210 209 205 204 204 206 210 227 250 278 311 333 342 352 31 40 40 37 29 26 31 49 69 74 57 56 50 44 204 190 189 201 208 201 192 192
280 267 257 238 227 217 214 215 212 211 211 213 215 219 232 244 255 277 301 315 307 281 55 56 45 40 37 34 52 67 56 25 43 41 16 241 201 209 214 207 205 202 200
276 261 247 236 226 217 216 212 212 213 213 215 216 222 230 236 245 255 276 284 277 250 223 195 33 32 23 17 35 61 50 46 41 29 23 191 211 229 228 218 218 219 219
272 262 245 236 225 219 214 213 213 214 215 218 220 224 228 233 239 244 259 265 262 244 231 238 279 342 353 353 20 54 79 67 71 69 31 332 240 234 222 227 222 209 212
273 267 245 232 219 217 218 218 217 218 221 225 226 227 229 231 234 237 250 252 248 240 235 238 255 279 308 343 34 93 140 158 275 232 321 295 257 210 197 214 216 205 206
271 263 253 229 221 222 223 222 223 227 226 230 229 227 228 230 232 234 242 244 241 239 237 238 240 240 253 290 314 207 169 179 257 263 284 280 248 200 200 211 211 206 200
266 253 244 230 228 228 229 230 230 231 230 231 230 228 226 226 229 233 238 238 238 237 239 241 236 231 238 261 261 249 237 215 242 266 275 272 247 226 223 226 220 214 211
266 256 246 237 234 234 233 235 235 233 235 235 232 229 228 224 225 234 236 233 234 235 238 241 237 233 233 241 244 246 236 229 228 235 232 239 230 227 230 227 222 222 224
270 261 251 247 243 238 236 235 237 235 237 238 232 232 228 224 226 232 232 231 232 235 236 237 236 234 232 233 239 239 233 228 229 229 226 241 244 245 242 238 233 232 232
266 262 257 249 245 239 237 236 238 238 237 236 229 225 226 226 227 229 231 231 234 236 235 236 237 236 235 235 239 240 238 233 236 242 243 249 253 253 254 251 247 240 238
265 260 257 249 243 241 239 239 242 240 238 233 232 228 225 227 227 227 231 232 233 234 236 237 236 235 236 237 239 238 239 238 240 245 250 253 255 255 255 258 254 251 248
265 260 254 251 248 246 246 244 239 239 236 232 231 227 225 227 226 227 230 234 233 234 235 235 236 234 234 236 237 239 243 244 245 247 253 255 257 259 256 255 254 254 256
265 259 253 254 249 250 249 244 238 235 234 231 227 224 224 225 226 230 232 233 234 232 232 232 233 231 232 235 239 243 246 248 248 250 252 254 256 259 261 260 258 257 260
268 262 259 253 250 249 251 247 240 235 233 228 224 224 225 224 226 229 231 233 233 233 233 232 232 232 234 237 242 245 248 251 252 253 255 257 258 260 264 266 263 262 265
Height
5875 5876 5876 5877 5878 5878 5878 5879 5880 5881 5882 5882 5884 5884 5885 5885 5886 5886 5887 5887 5887 5887 5887 5887 5887 5887 5887 5887 5887 5887 5888 5888 5888 5888 5888 5889 5889 5889 5889 5890 5890 5890 5890
5876 5876 5877 5878 5878 5879 5879 5880 5880 5881 5882 5883 5884 5885 5886 5886 5887 5887 5888 5888 5888 5887 5887 5887 5887 5887 5888 5888 5888 5888 5888 5889 5889 5889 5889 5889 5890 5890 5890 5890 5891 5891 5891
5876 5877 5877 5878 5879 5879 5880 5880 5881 5882 5883 5884 5885 5886 5886 5887 5888 5888 5888 5888 5888 5888 5888 5888 5888 5888 5889 5889 5889 5889 5889 5889 5890 5890 5890 5890 5890 5891 5891 5891 5891 5892 5892
5876 5877 5877 5878 5879 5879 5880 5881 5882 5882 5883 5884 5885 5886 5887 5888 5888 5889 5889 5889 5889 5889 5889 5889 5889 5889 5889 5889 5890 5890 5890 5890 5890 5891 5891 5891 5891 5892 5892 5892 5892 5892 5893
5876 5877 5877 5878 5879 5880 5880 5881 5882 5883 5884 5885 5886 5887 5888 5888 5889 5889 5889 5889 5890 5890 5890 5889 5889 5890 5890 5890 5890 5890 5890 5891 5891 5891 5892 5892 5892 5892 5892 5892 5893 5893 5893
5876 5876 5877 5878 5879 5880 5881 5882 5882 5883 5884 5885 5886 5887 5888 5889 5889 5890 5890 5890 5890 5890 5890 5890 5890 5890 5890 5890 5891 5891 5891 5891 5892 5892 5892 5892 5893 5893 5893 5893 5893 5894 5894
5876 5876 5877 5878 5879 5879 5880 5882 5883 5884 5885 5886 5887 5888 5888 5889 5890 5890 5890 5890 5891 5890 5890 5891 5891 5891 5891 5891 5891 5891 5892 5892 5892 5892 5892 5893 5893 5893 5893 5893 5894 5894 5894
5875 5876 5876 5877 5878 5879 5880 5881 5883 5884 5885 5886 5887 5888 5889 5889 5890 5890 5891 5891 5891 5891 5891 5891 5891 5891 5891 5891 5891 5891 5892 5892 5892 5892 5893 5893 5893 5893 5894 5894 5894 5894 5895
5875 5875 5875 5876 5877 5878 5879 5881 5882 5883 5885 5886 5887 5888 5889 5889 5890 5890 5891 5891 5891 5891 5891 5891 5891 5891 5891 5891 5891 5891 5892 5892 5892 5893 5893 5893 5893 5894 5894 5894 5894 5895 5895
5874 5874 5874 5875 5876 5877 5879 5880 5881 5883 5884 5886 5887 5888 5889 5890 5890 5890 5891 5891 5892 5892 5892 5892 5891 5891 5891 5891 5891 5891 5892 5892 5892 5893 5893 5893 5893 5894 5894 5894 5895 5895 5895
5873 5873 5873 5874 5875 5876 5878 5879 5881 5882 5884 5885 5887 5888 5889 5890 5890 5891 5891 5891 5892 5892 5892 5892 5892 5892 5892 5892 5891 5891 5892 5892 5892 5893 5893 5893 5893 5894 5894 5895 5895 5895 5896
5872 5872 5872 5873 5874 5875 5877 5878 5880 5882 5883 5885 5886 5888 5889 5889 5890 5890 5891 5891 5892 5892 5892 5892 5892 5892 5892 5892 5892 5892 5892 5892 5893 5893 5893 5893 5893 5894 5894 5894 5895 5895 5896
5870 5871 5871 5872 5873 5874 5876 5877 5879 5881 5882 5884 5886 5887 5888 5889 5890 5890 5891 5891 5892 5892 5892 5893 5893 5893 5892 5892 5892 5892 5892 5893 5893 5893 5893 5893 5893 5893 5894 5894 5895 5895 5895
5868 5869 5869 5870 5871 5873 5874 5876 5877 5879 5881 5883 5884 5886 5887 5888 5889 5890 5890 5891 5891 5892 5892 5893 5893 5893 5892 5892 5892 5892 5892 5893 5893 5893 5893 5893 5893 5893 5894 5894 5895 5895 5895
5867 5867 5867 5868 5869 5871 5873 5874 5876 5878 5880 5881 5883 5884 5886 5887 5888 5889 5890 5890 5891 5891 5892 5892 5892 5892 5892 5892 5892 5892 5892 5892 5893 5893 5893 5893 5893 5893 5894 5894 5894 5895 5895
5865 5865 5865 5866 5868 5869 5871 5873 5874 5876 5878 5880 5881 5883 5884 5886 5887 5888 5889 5890 5890 5891 5891 5892 5892 5892 5892 5892 5892 5892 5892 5892 5892 5893 5893 5893 5893 5893 5894 5894 5894 5894 5895
5863 5863 5863 5864 5866 5867 5869 5871 5872 5874 5876 5877 5879 5881 5883 5884 5885 5887 5888 5889 5890 5890 5891 5891 5892 5892 5892 5892 5892 5892 5892 5892 5892 5893 5893 5893 5893 5893 5893 5893 5894 5894 5894
5860 5860 5861 5862 5864 5866 5867 5868 5870 5871 5873 5875 5876 5878 5880 5882 5884 5885 5886 5887 5888 5889 5890 5891 5891 5892 5892 5892 5892 5892 5892 5892 5892 5893 5893 5893 5893 5893 5893 5893 5893 5894 5894
5858 5858 5859 5860 5862 5863 5864 5866 5867 5869 5870 5872 5874 5876 5878 5880 5882 5883 5884 5886 5887 5888 5889 5890 5890 5891 5891 5891 5892 5892 5892 5892 5892 5893 5893 5893 5893 5893 5893 5893 5893 5894 5894
5856 5856 5856 5858 5859 5860 5861 5863 5865 5866 5868 5869 5871 5873 5875 5877 5879 5881 5882 5884 5885 5886 5888 5889 5889 5890 5890 5891 5891 5891 5892 5892 5892 5892 5893 5893 5893 5893 5893 5893 5893 5893 5894
5853 5853 5854 5855 5856 5857 5858 5860 5862 5863 5864 5866 5868 5870 5872 5874 5876 5878 5880 5882 5883 5885 5886 5887 5888 5889 5889 5890 5890 5891 5891 5892 5892 5892 5892 5892 5892 5892 5892 5892 5892 5893 5893
5851 5851 5852 5852 5853 5853 5855 5856 5858 5859 5861 5863 5865 5867 5869 5871 5873 5876 5878 5880 5881 5883 5884 5885 5887 5888 5888 5889 5889 5890 5891 5892 5892 5892 5892 5892 5892 5892 5892 5892 5892 5892 5893
5848 5848 5848 5849 5849 5850 5851 5852 5854 5856 5857 5859 5862 5864 5866 5868 5871 5873 5875 5877 5879 5880 5881 5883 5885 5886 5887 5888 5888 5889 5890 5890 5891 5891 5891 5891 5891 5891 5891 5891 5891 5892 5892
5846 5845 5845 5845 5846 5846 5847 5848 5849 5852 5854 5856 5858 5861 5863 5866 5868 5870 5872 5874 5876 5877 5879 5880 5882 5884 5885 5886 5887 5888 5889 5889 5890 5890 5891 5891 5891 5891 5891 5891 5891 5891 5891
5843 5843 5843 5842 5842 5843 5843 5843 5845 5847 5850 5852 5854 5857 5860 5862 5865 5867 5869 5871 5873 5874 5876 5878 5880 5881 5883 5884 5885 5886 5887 5888 5888 5889 5889 5889 5889 5889 5889 5889 5889 5890 5890
5841 5840 5839 5839 5839 5839 5839 5840 5842 5844 5846 5848 5851 5853 5856 5859 5862 5864 5866 5868 5870 5871 5873 5875 5877 5879 5880 5882 5883 5884 5885 5886 5886 5886 5887 5887 5887 5888 5888 5888 5888 5888 5888